www.pogodaiklimat.ru

Погода и климат >> Архив погоды >> Аргентина >> Неукен


ПОГОДА в Неукене

  • Прогноз погоды в Неукене
  • Монитор погоды в Неукене

АРХИВ ПОГОДЫ в Неукене

Время (UTC), дата Ветер
(напр.,м/с)
 
Видим.   Явления Облачность Т
(С)
Тd
(С)
f
(%)
Тe
(С)
Тes
(С)
Комфортность P
(гПа)
Po
(гПа)
Тmin
(С)
Tmax
(С)
R
(мм)
R24
(мм)
S
(см)
03 14.01 Ю 1 15 км ясно +18.2 +11.7 66 +20 +20 1015.8 984.4
06 14.01 Ю 1 15 км ясно +14.3 +9.7 74 +15 +15 1015.0 983.6
09 14.01 В 1 15 км ясно +14.5 +9.1 70 +15 +15 1014.8 983.4
12 14.01 В 3 15 км 4/0
[Ci]
+19.6 +10.3 55 +21 +25 комфорт 1015.2 984.0 +13.0 +25.9 56 58
15 14.01 В 2 15 км 5/0
[Ac cast Ci]
+25.3 +11.3 42 +27 +42 жарко 1013.4 982.2
18 14.01 В 5 15 км 6/4 1350 м
[Sc Ci]
+33.0 +5.8 18 +31 +37 жарко 1009.7 978.8
21 14.01 С 9 15 км слаб. дождь 8/8 1200 м
[Cb cap Cs]
+29.2 +10.4 31 +29 +29 жарко 1009.2 978.1
00 15.01 З 3 15 км {морось} 9/5 1350 м
[Sc Ac As Cs]
+26.0 +10.0 37 +27 +27 жарко 1010.3 979.3 +19.6 +34.4 0.0
03 15.01 СЗ 1 15 км 6/0
[Ac As Cs]
+20.0 +12.2 61 +23 +23 комфорт 1010.4 979.4
06 15.01 штиль 0 15 км 5/0
[Ac As Cs]
+17.8 +12.5 71 +18 +18 1009.3 978.6
09 15.01 З 4 15 км 3/0
[Cs]
+20.0 +10.3 54 +21 +21 комфорт 1009.8 979.0
12 15.01 З 4 15 км ясно +22.4 +10.5 47 +24 +28 комфорт 1010.9 980.0 +17.0 +26.1 0.0
15 15.01 З 4 15 км ясно +28.4 +8.6 29 +28 +40 жарко 1009.7 978.9
18 15.01 ЮЗ 4 15 км 1/0
[Ci fib]
+31.9 +5.5 19 +30 +41 жарко 1006.4 975.7
21 15.01 ЮЗ 6 15 км 3/0
[Ci fib]
+32.9 -0.7 12 +30 +32 жарко 1004.3 973.8
00 16.01 ЮЗ 4 15 км 5/0
[Cs]
+27.3 -6.8 10 +24 +24 комфорт 1007.2 976.5 +22.2 +33.8
03 16.01 ЮЗ 3 15 км 6/0
[Cs]
+24.3 -4.7 14 +22 +22 комфорт 1007.7 977.0
06 16.01 ЮЗ 6 15 км 6/0
[Cs]
+21.2 -1.7 21 +21 +21 комфорт 1007.8 977.2
09 16.01 ЮЗ 7 15 км 8/0
[Ac As Cs]
+20.1 +3.4 33 +20 +20 1008.1 977.4
12 16.01 ЮЗ 8 15 км 4/0
[Cs]
+21.2 +5.2 35 +22 +23 комфорт 1011.7 980.8 +18.6 +27.4
15 16.01 З 4 15 км 4/0
[Cs]
+23.2 +3.4 27 +23 +34 комфорт 1012.9 981.8
18 16.01 З 6 15 км 6/1 1500 м
[Cu hum Cs]
+25.7 +2.1 22 +24 +31 комфорт 1012.6 981.6
21 16.01 Ю 7 15 км 4/0
[Cs]
+26.5 0.0 18 +25 +26 комфорт 1013.1 982.1
00 17.01 ЮЗ 2 15 км 1/0
[Cs]
+24.3 +2.5 24 +23 +23 комфорт 1015.4 984.2 +21.2 +27.2
03 17.01 штиль 0 50 км ?/? 1020.5 989.0
06 17.01 ЮВ 3 15 км ясно +16.6 +2.9 40 +16 +16 1023.2 991.6
09 17.01 В 3 15 км ясно +13.3 +6.7 64 +12 +12 1025.4 993.6
12 17.01 В 2 15 км ясно +16.4 +6.5 52 +17 +22 1027.0 995.2 +12.5 +24.3
15 17.01 СВ 2 15 км ясно +22.3 +3.7 30 +22 +40 комфорт 1025.5 993.8
18 17.01 С 2 15 км ясно +26.3 +3.3 23 +25 +44 комфорт 1022.8 991.3
21 17.01 штиль 0 15 км ясно +27.2 +3.4 22 +26 +33 жарко 1020.8 989.2
00 18.01 штиль 0 15 км 3/0
[Cs]
+24.9 +7.5 33 +25 +25 комфорт 1021.0 989.4 +16.4 +27.6
03 18.01 ЮВ 1 15 км ясно +19.2 +9.5 53 +21 +21 комфорт 1021.7 990.1
06 18.01 штиль 0 15 км ясно +16.7 +4.6 45 +17 +17 1020.7 989.2
09 18.01 штиль 0 15 км ясно +15.2 +5.9 54 +15 +15 1020.2 988.6
12 18.01 В 2 15 км ясно +20.2 +6.4 41 +22 +27 комфорт 1021.0 989.6 +13.3 +25.0
15 18.01 В 4 15 км ясно +27.4 +3.8 22 +26 +38 жарко 1019.7 988.5
18 18.01 С 6 15 км ясно +29.6 -0.5 14 +27 +35 жарко 1017.4 986.2
21 18.01 СВ 5 15 км 4/0
[Cs]
+29.8 -2.8 12 +27 +29 жарко 1015.2 984.0
00 19.01 СВ 3 15 км 1/0
[Cs]
+27.6 +1.3 18 +26 +26 жарко 1015.2 984.2 +20.2 +31.1
03 19.01 СВ 3 15 км ясно +23.2 +2.4 26 +23 +23 комфорт 1016.6 985.7
06 19.01 С 4 15 км ясно +21.2 +5.8 37 +22 +22 комфорт 1016.2 985.3
09 19.01 СВ 3 15 км ясно +18.8 +8.0 49 +19 +19 1015.9 984.9
12 19.01 В 3 15 км ясно +21.2 +11.2 53 +23 +27 комфорт 1015.8 984.8 +18.0 +27.7
15 19.01 СВ 4 15 км ясно +27.1 +10.2 35 +28 +39 жарко 1014.2 983.3
18 19.01 В 5 15 км ясно +32.8 +8.5 22 +31 +42 жарко 1010.4 979.8
21 19.01 В 6 15 км ясно +34.8 +5.9 17 +33 +35 жарко 1007.2 976.6
00 20.01 СВ 2 15 км ясно +32.0 +10.3 26 +32 +32 жарко 1007.0 976.5 +20.7 +35.4
03 20.01 С 6 15 км ясно +28.9 +10.7 32 +29 +29 жарко 1007.5 977.0
06 20.01 ЮЗ 2 15 км ясно +24.7 +14.0 51 +27 +27 жарко 1007.3 977.0
09 20.01 В 2 15 км 4/0
[Cs]
+21.8 +14.0 61 +25 +25 комфорт 1006.5 976.2
12 20.01 СВ 2 15 км 3/0
[Ac cast]
+23.4 +14.8 58 +27 +32 душно 1007.1 976.6 +21.1 +32.0
15 20.01 ЮЗ 3 15 км 1/0
[Ac cast]
+31.2 +11.1 29 +31 +45 жарко 1004.9 974.8
18 20.01 З 3 15 км ясно +35.1 +10.1 22 +34 +49 очень
жарко
1002.6 972.5
21 20.01 ЮЗ 8 15 км ясно +35.3 +2.6 13 +32 +33 жарко 1001.7 971.4

 

Местоположение метеостанции Неукен (Аргентина): широта -38.95 долгота -68.13 высота над уровнем моря 271 м.

В архиве по умолчанию представлена погода в Неукене за последнюю неделю. Архивные данные за месяц целиком и за предыдущие месяцы, начиная с января 2011 года, Вы можете получить, выбрав интересующий диапазон дат из раскрывающегося списка и нажав кнопку "Ввод!".


*Определитесь, кто Вы:
робот инопланетянин человек

Внимание! Время в таблицах - всемирное. Для получения местного времени необходимо прибавить поправку, которая равна -3 ч.

Смотрите также архив погоды в соседних городах и на ближайших метеорологических станциях:

Погода в Макичао (Аргентина) (261 км)
Погода в Сан-Антонио Оэсте (Аргентина) (330 км)
Погода в Сан-Карлос-де-Барилоче (Аргентина) (356 км)
Погода в Темуко (Чили) (390 км)
Погода в Араукании (Чили) (391 км)
Погода в Маларгуэ (Аргентина) (405 км)
Погода в Санкт-Розе (Аргентина) (432 км)
Погода в Вальдивии (Чили) (433 км)
Погода в Чильяне (Чили) (434 км)
Погода в Эль-Болсоне (Аргентина) (442 км)

Пояснения к столбцам:

Ветер - указаны скорость ветра в м/с - средняя за 10 мин, порывы в срок и между сроками (в фигурных скобках) и направление, откуда дует ветер: С - северный, СВ - северо-восточный, В - восточный, ЮВ - юго-восточный, Ю - южный, ЮЗ - юго-западный, З - западный, СЗ - северо-западный.
Видимость - горизонтальная дальность видимости в метрах или километрах. При видимости от 1 до 10 км при отсутствии осадков обычно наблюдается дымка, при ухудшении видимости до 1 км и менее - туман. В сухую погоду видимость может ухудшаться дымом, пылью или мглою.
Явления - указаны атмосферные явления, наблюдавшиеся в срок или в последний час перед сроком; фигурными скобками обозначены явления, наблюдавшиеся между сроками (за 1-3 часа до срока); квадратными скобками обозначены град или гололедные отложения с указанием их диаметра в мм.
Облачность - указаны через наклонную черту общая и нижняя облачность в баллах и высота нижней границы облаков в метрах; квадратными скобками обозначены формы облаков: Ci - перистые, Cs - перисто-слоистые, Cc - перисто-кучевые, Ac - высококучевые, As - высокослоистые, Sc - слоисто-кучевые, Ns - слоисто-дождевые, Cu - кучевые, Cb - кучево-дождевые. Подробнее классификацию облаков см. в Атласе облаков (PDF).
T - Температура воздуха - температура, измеренная на высоте 2 м над землей.
Td - Температура точки росы - температура, при понижении до которой содержащийся в воздухе водяной пар достигнет насыщения.
f - Относительная влажность воздуха - влажноcть воздуха, измеренная на высоте 2 м над землей.
Te - Эффективная температура - температура, которую ощущает одетый по сезону человек в тени. Характеристика душности погоды. При расчете учитывается влияние влажности воздуха и скорости ветра на теплоощущения человека.
Tes - Эффективная температура на солнце - температура, которую ощущает человек, с поправкой на солнечный нагрев. Характеристика знойности погоды. Зависит от высоты солнца над горизонтом, облачности и скорости ветра. Ночью, в пасмурную погоду, а также при ветре 12 м/с и более поправка равна нулю.
P - Атмосферное давление - приведенное к уровню моря атмосферное давление.
Po - Атмосферное давление - измеренное на уровне метеостанции атмосферное давление.
Tmin - Минимальная температура - минимум температуры воздуха на высоте 2 м над землей.
Tmax - Максимальная температура - максимум температуры воздуха на высоте 2 м над землей.
R - Количество осадков - Количество выпавших осадков за период времени, мм. При наведении курсора мыши на число - период времени, за который выпало указанное количество осадков.
R24 - Количество осадков - Количество выпавших осадков за 24 часа, мм.
S - Снежный покров - Высота снежного покрова, см. При наведении курсора мыши на число - состояние снежного покрова и степень покрытия местности в баллах.